User: anonymous   Login
Location: Oshawa
(43.9000°N, 78.8670°W)
Time: 14:10:53
(UTC-04:00)
Language:

Cosmos 2333 Rocket - Orbit

View from above orbital plane
View from above orbital plane
View from above satellite
View from above satellite

Ground track
Ground track

The orbit data is extracted from the following two-line orbital elements,

1 24298U 96051B   14303.12876076 -.00000136  00000-0 -47545-4 0  5889
2 24298 070.8598 287.7810 0015802 180.9401 248.7428 14.12457727936122
Epoch (UTC): 30 October 2014 03:05:24
Eccentricity: 0.0015802
inclination: 70.8598°
perigee height: 839 km
apogee height: 862 km
right ascension of ascending node: 287.7810°
argument of perigee: 180.9401°
revolutions per day: 14.12457727
mean anomaly at epoch: 248.7428°
orbit number at epoch: 93612

The dashed part of the orbit path shows where the satellite is in the earth's shadow,  

DLR